WTB74P EDDS-LOWW

Flight info

Callsign WTB74P
Flight time 0h 49m
Altitude 31000
Route ABTAL4B/25 ABTAL L173 RIXED Y161 RIDAR Z98 MIQ L605 BIBAG Q104 AKIMA DCT MASUR MASUR3W
Aircraft A20N/M-SDE2E3FGHIRWXY/LB1

Departure

Time 2026-05-07 17:48
Airport Stuttgart Airport (EDDS)

Arrival

Time 2026-05-07 18:37
Airport Vienna International Airport (LOWW)
Time Latitude Longitude Altitude Speed Heading
2026-05-07 17:25 48.68935 9.20153 1296 ft 0 kts 164°
2026-05-07 17:42 48.68934 9.20153 1296 ft 1 kts 164°
2026-05-07 17:43 48.68911 9.20168 1294 ft 10 kts 150°
2026-05-07 17:43 48.68890 9.20319 1288 ft 19 kts 73°
2026-05-07 17:43 48.68933 9.20536 1283 ft 24 kts 75°
2026-05-07 17:43 48.68977 9.20767 1279 ft 18 kts 74°
2026-05-07 17:44 48.69015 9.20976 1271 ft 23 kts 76°
2026-05-07 17:44 48.69052 9.21172 1273 ft 20 kts 72°
2026-05-07 17:44 48.69098 9.21400 1265 ft 25 kts 74°
2026-05-07 17:44 48.69151 9.21674 1262 ft 29 kts 73°
2026-05-07 17:45 48.69197 9.21947 1255 ft 26 kts 75°
2026-05-07 17:45 48.69252 9.22230 1253 ft 30 kts 72°
2026-05-07 17:45 48.69313 9.22533 1248 ft 31 kts 74°
2026-05-07 17:45 48.69367 9.22807 1230 ft 22 kts 72°
2026-05-07 17:46 48.69412 9.23049 1226 ft 24 kts 76°
2026-05-07 17:46 48.69457 9.23305 1228 ft 25 kts 74°
2026-05-07 17:46 48.69500 9.23540 1248 ft 20 kts 75°
2026-05-07 17:46 48.69501 9.23698 1258 ft 13 kts 122°
2026-05-07 17:47 48.69385 9.23716 1231 ft 25 kts 216°
2026-05-07 17:47 48.69323 9.23611 1212 ft 21 kts 227°
2026-05-07 17:47 48.69212 9.23348 1210 ft 23 kts 250°
2026-05-07 17:47 48.69120 9.22889 1219 ft 80 kts 255°
2026-05-07 17:48 48.68989 9.22195 1242 ft 121 kts 254°
2026-05-07 17:48 48.68717 9.20734 1404 ft 159 kts 256°
2026-05-07 17:48 48.68394 9.19050 1869 ft 177 kts 257°
2026-05-07 17:48 48.68032 9.17143 2311 ft 200 kts 256°
2026-05-07 17:49 48.67631 9.15058 2716 ft 215 kts 255°
2026-05-07 17:49 48.67195 9.12824 3033 ft 234 kts 255°
2026-05-07 17:49 48.66617 9.10473 3731 ft 243 kts 238°
2026-05-07 17:49 48.65317 9.08864 4519 ft 249 kts 199°
2026-05-07 17:50 48.63599 9.08770 5350 ft 252 kts 162°
2026-05-07 17:50 48.62095 9.10122 6156 ft 256 kts 133°
2026-05-07 17:50 48.61201 9.12505 6675 ft 273 kts 106°
2026-05-07 17:50 48.60990 9.15410 7265 ft 284 kts 91°
2026-05-07 17:51 48.60959 9.18430 7987 ft 290 kts 91°
2026-05-07 17:51 48.60942 9.21500 8757 ft 294 kts 91°
2026-05-07 17:51 48.60930 9.24618 9530 ft 299 kts 91°
2026-05-07 17:51 48.60915 9.27785 10261 ft 305 kts 91°
2026-05-07 17:52 48.60895 9.31104 10487 ft 328 kts 91°
2026-05-07 17:52 48.60871 9.34672 10672 ft 351 kts 91°
2026-05-07 17:52 48.60845 9.38443 11072 ft 364 kts 91°
2026-05-07 17:52 48.60816 9.42285 11708 ft 368 kts 91°
2026-05-07 17:53 48.60784 9.46174 12391 ft 372 kts 91°
2026-05-07 17:53 48.60750 9.50092 13080 ft 375 kts 91°
2026-05-07 17:53 48.60713 9.54054 13767 ft 378 kts 91°
2026-05-07 17:53 48.60673 9.58050 14368 ft 382 kts 91°
2026-05-07 17:54 48.60630 9.62087 14918 ft 387 kts 91°
2026-05-07 17:54 48.60587 9.66117 15466 ft 391 kts 91°
2026-05-07 17:54 48.60541 9.70245 16031 ft 394 kts 91°
2026-05-07 17:54 48.60497 9.74412 16601 ft 398 kts 91°
2026-05-07 17:55 48.60452 9.78620 17153 ft 401 kts 91°
2026-05-07 17:55 48.60404 9.82854 17702 ft 405 kts 91°
2026-05-07 17:55 48.60353 9.87123 18235 ft 408 kts 91°
2026-05-07 17:55 48.60297 9.91434 18705 ft 412 kts 91°
2026-05-07 17:56 48.60239 9.95768 19166 ft 415 kts 91°
2026-05-07 17:56 48.60180 10.00138 19626 ft 417 kts 91°
2026-05-07 17:56 48.60121 10.04545 20105 ft 420 kts 91°
2026-05-07 17:56 48.60061 10.08967 20571 ft 422 kts 91°
2026-05-07 17:57 48.60002 10.13412 21035 ft 425 kts 91°
2026-05-07 17:57 48.59960 10.16367 21330 ft 426 kts 91°
2026-05-07 17:57 48.59871 10.22380 21918 ft 430 kts 91°
2026-05-07 17:57 48.59799 10.26911 22352 ft 432 kts 91°
2026-05-07 17:58 48.59725 10.31414 22781 ft 435 kts 91°
2026-05-07 17:58 48.59651 10.35995 23196 ft 438 kts 91°
2026-05-07 17:58 48.59576 10.40603 23610 ft 440 kts 91°
2026-05-07 17:58 48.59499 10.45242 23959 ft 443 kts 91°
2026-05-07 17:59 48.59419 10.49900 24304 ft 444 kts 91°
2026-05-07 17:59 48.59336 10.54579 24649 ft 446 kts 91°
2026-05-07 17:59 48.59253 10.59271 24992 ft 448 kts 91°
2026-05-07 17:59 48.59166 10.63985 25317 ft 451 kts 91°
2026-05-07 18:00 48.59073 10.68734 25619 ft 454 kts 91°
2026-05-07 18:00 48.58976 10.73507 25936 ft 456 kts 91°
2026-05-07 18:00 48.58879 10.78308 26264 ft 458 kts 91°
2026-05-07 18:00 48.58779 10.83132 26580 ft 460 kts 91°
2026-05-07 18:01 48.58663 10.87959 26905 ft 461 kts 92°
2026-05-07 18:01 48.58533 10.92809 27221 ft 463 kts 92°
2026-05-07 18:01 48.58391 10.97678 27523 ft 465 kts 92°
2026-05-07 18:01 48.58246 11.02568 27817 ft 467 kts 92°
2026-05-07 18:02 48.57955 11.12389 28394 ft 470 kts 92°
2026-05-07 18:02 48.57825 11.17327 28674 ft 472 kts 91°
2026-05-07 18:02 48.57726 11.22289 28948 ft 473 kts 91°
2026-05-07 18:03 48.57646 11.27259 29215 ft 475 kts 91°
2026-05-07 18:03 48.57568 11.32256 29500 ft 476 kts 91°
2026-05-07 18:03 48.57486 11.37240 29861 ft 475 kts 91°
2026-05-07 18:03 48.57398 11.42229 30194 ft 475 kts 91°
2026-05-07 18:04 48.57254 11.47216 30486 ft 475 kts 95°
2026-05-07 18:04 48.56928 11.52186 30762 ft 476 kts 96°
2026-05-07 18:04 48.56557 11.57090 30990 ft 476 kts 97°
2026-05-07 18:05 48.55731 11.66968 31051 ft 473 kts 97°
2026-05-07 18:05 48.54892 11.76803 31048 ft 472 kts 97°
2026-05-07 18:06 48.54083 11.86656 31049 ft 473 kts 97°
2026-05-07 18:06 48.53277 11.96524 31047 ft 474 kts 97°
2026-05-07 18:07 48.52461 12.06393 31053 ft 474 kts 97°
2026-05-07 18:07 48.51629 12.16262 31055 ft 474 kts 97°
2026-05-07 18:08 48.50789 12.26061 31053 ft 474 kts 97°
2026-05-07 18:08 48.49936 12.35942 31051 ft 474 kts 97°
2026-05-07 18:09 48.49084 12.45822 31049 ft 475 kts 97°
2026-05-07 18:09 48.48225 12.55631 31050 ft 475 kts 97°
2026-05-07 18:10 48.47350 12.65494 31051 ft 475 kts 97°
2026-05-07 18:10 48.46470 12.75356 31053 ft 475 kts 97°
2026-05-07 18:11 48.45580 12.85209 31054 ft 475 kts 97°
2026-05-07 18:11 48.44680 12.95065 31055 ft 475 kts 98°
2026-05-07 18:12 48.43771 13.04905 31063 ft 475 kts 98°
2026-05-07 18:12 48.42850 13.14757 31053 ft 475 kts 98°
2026-05-07 18:13 48.41923 13.24619 31047 ft 475 kts 98°
2026-05-07 18:13 48.41525 13.34520 31047 ft 475 kts 85°
2026-05-07 18:14 48.42120 13.44419 31046 ft 475 kts 84°
2026-05-07 18:14 48.42683 13.54269 31042 ft 475 kts 85°
2026-05-07 18:15 48.43243 13.64246 31040 ft 475 kts 85°
2026-05-07 18:15 48.43800 13.74098 31045 ft 475 kts 85°
2026-05-07 18:16 48.44351 13.84006 31045 ft 475 kts 85°
2026-05-07 18:16 48.44892 13.93923 31041 ft 475 kts 86°
2026-05-07 18:17 48.45425 14.03839 31048 ft 475 kts 86°
2026-05-07 18:17 48.45951 14.13769 31035 ft 475 kts 86°
2026-05-07 18:18 48.46466 14.23710 31031 ft 475 kts 86°
2026-05-07 18:18 48.46972 14.33646 31030 ft 475 kts 86°
2026-05-07 18:18 48.47221 14.38607 30833 ft 473 kts 86°
2026-05-07 18:19 48.47467 14.43547 30097 ft 473 kts 88°
2026-05-07 18:19 48.47711 14.48501 29132 ft 473 kts 88°
2026-05-07 18:19 48.47949 14.53437 28359 ft 471 kts 88°
2026-05-07 18:19 48.48184 14.58335 27697 ft 466 kts 88°
2026-05-07 18:20 48.48418 14.63190 27063 ft 462 kts 87°
2026-05-07 18:20 48.48649 14.67995 26442 ft 458 kts 87°
2026-05-07 18:20 48.48878 14.72777 25828 ft 454 kts 87°
2026-05-07 18:20 48.49102 14.77503 25228 ft 451 kts 87°
2026-05-07 18:21 48.49318 14.82138 24647 ft 447 kts 87°
2026-05-07 18:21 48.49531 14.86787 24071 ft 443 kts 88°
2026-05-07 18:21 48.49738 14.91396 23532 ft 438 kts 89°
2026-05-07 18:21 48.49595 14.95946 22897 ft 432 kts 98°
2026-05-07 18:22 48.49260 15.00422 22270 ft 428 kts 98°
2026-05-07 18:22 48.49034 15.03431 21867 ft 426 kts 98°
2026-05-07 18:22 48.48591 15.09275 21114 ft 421 kts 98°
2026-05-07 18:22 48.48256 15.13640 20568 ft 418 kts 98°
2026-05-07 18:23 48.47919 15.17972 20018 ft 415 kts 98°
2026-05-07 18:23 48.47581 15.22269 19486 ft 412 kts 98°
2026-05-07 18:23 48.47245 15.26531 18971 ft 409 kts 98°
2026-05-07 18:23 48.46913 15.30772 18467 ft 406 kts 98°
2026-05-07 18:24 48.46582 15.34983 17927 ft 403 kts 98°
2026-05-07 18:24 48.46249 15.39157 17396 ft 400 kts 98°
2026-05-07 18:24 48.45914 15.43298 16890 ft 396 kts 98°
2026-05-07 18:24 48.45579 15.47414 16392 ft 393 kts 98°
2026-05-07 18:25 48.45249 15.51486 15911 ft 390 kts 98°
2026-05-07 18:25 48.44921 15.55521 15418 ft 387 kts 98°
2026-05-07 18:25 48.44595 15.59529 14945 ft 384 kts 98°
2026-05-07 18:25 48.44270 15.63514 14490 ft 381 kts 98°
2026-05-07 18:26 48.43954 15.67392 14338 ft 361 kts 98°
2026-05-07 18:26 48.43657 15.71021 14210 ft 338 kts 98°
2026-05-07 18:26 48.43375 15.74443 13939 ft 323 kts 98°
2026-05-07 18:26 48.43097 15.77766 13400 ft 318 kts 98°
2026-05-07 18:27 48.42821 15.81047 12796 ft 314 kts 98°
2026-05-07 18:27 48.42546 15.84294 12199 ft 311 kts 98°
2026-05-07 18:27 48.42274 15.87511 11602 ft 309 kts 98°
2026-05-07 18:27 48.42096 15.89622 11217 ft 307 kts 98°
2026-05-07 18:28 48.41734 15.93870 10440 ft 303 kts 98°
2026-05-07 18:28 48.41464 15.97003 9875 ft 300 kts 98°
2026-05-07 18:28 48.41199 16.00098 9250 ft 297 kts 98°
2026-05-07 18:28 48.40941 16.03134 8643 ft 294 kts 98°
2026-05-07 18:29 48.40680 16.06208 8026 ft 291 kts 97°
2026-05-07 18:29 48.40426 16.09167 7425 ft 287 kts 99°
2026-05-07 18:29 48.39925 16.12051 6814 ft 284 kts 109°
2026-05-07 18:29 48.39272 16.14839 6172 ft 282 kts 110°
2026-05-07 18:30 48.38602 16.17611 5522 ft 281 kts 110°
2026-05-07 18:30 48.37938 16.20360 5085 ft 278 kts 110°
2026-05-07 18:30 48.37277 16.23099 4993 ft 279 kts 110°
2026-05-07 18:30 48.36611 16.25868 5007 ft 281 kts 110°
2026-05-07 18:31 48.35936 16.28627 5005 ft 281 kts 110°
2026-05-07 18:31 48.35267 16.31368 4648 ft 278 kts 110°
2026-05-07 18:31 48.34601 16.34101 4224 ft 278 kts 110°
2026-05-07 18:31 48.33942 16.36821 3838 ft 276 kts 110°
2026-05-07 18:32 48.33296 16.39525 3464 ft 274 kts 110°
2026-05-07 18:32 48.32651 16.42216 3086 ft 272 kts 114°
2026-05-07 18:32 48.31641 16.44560 3021 ft 268 kts 133°
2026-05-07 18:32 48.30435 16.46553 3021 ft 253 kts 135°
2026-05-07 18:33 48.29276 16.48416 3022 ft 236 kts 135°
2026-05-07 18:33 48.28178 16.50177 3028 ft 227 kts 137°
2026-05-07 18:33 48.26925 16.51445 3026 ft 211 kts 161°
2026-05-07 18:33 48.25542 16.52061 3041 ft 200 kts 166°
2026-05-07 18:34 48.24292 16.52592 3016 ft 176 kts 166°
2026-05-07 18:34 48.23517 16.52921 2924 ft 167 kts 165°
2026-05-07 18:34 48.22447 16.53375 2782 ft 155 kts 166°
2026-05-07 18:34 48.21425 16.53809 2567 ft 150 kts 166°
2026-05-07 18:35 48.20433 16.54230 2377 ft 147 kts 166°
2026-05-07 18:35 48.19456 16.54645 2179 ft 145 kts 166°
2026-05-07 18:35 48.18491 16.55054 1989 ft 143 kts 166°
2026-05-07 18:35 48.17540 16.55458 1798 ft 142 kts 166°
2026-05-07 18:36 48.16592 16.55860 1603 ft 142 kts 166°
2026-05-07 18:36 48.15643 16.56262 1405 ft 142 kts 166°
2026-05-07 18:36 48.14694 16.56665 1210 ft 141 kts 168°
2026-05-07 18:36 48.13753 16.57063 1016 ft 140 kts 169°
2026-05-07 18:37 48.12820 16.57460 825 ft 139 kts 169°
2026-05-07 18:37 48.11894 16.57860 640 ft 138 kts 169°
2026-05-07 18:37 48.11036 16.58209 618 ft 107 kts 164°
2026-05-07 18:37 48.10626 16.58260 614 ft 21 kts 198°
2026-05-07 18:38 48.10598 16.58246 609 ft 6 kts 199°
2026-05-07 18:38 48.10596 16.58245 609 ft 3 kts 199°
2026-05-07 18:38 48.10563 16.58198 614 ft 5 kts 250°
2026-05-07 18:38 48.10570 16.58153 621 ft 3 kts 301°
2026-05-07 18:39 48.10581 16.58135 615 ft 1 kts 319°
2026-05-07 18:39 48.10612 16.58116 621 ft 14 kts 343°
2026-05-07 18:39 48.10717 16.58078 613 ft 15 kts 344°
2026-05-07 18:39 48.10809 16.58036 618 ft 13 kts 342°
2026-05-07 18:40 48.10941 16.57980 610 ft 27 kts 342°
2026-05-07 18:40 48.11075 16.57915 611 ft 20 kts 333°
2026-05-07 18:40 48.11151 16.57754 622 ft 17 kts 294°
2026-05-07 18:40 48.11198 16.57596 616 ft 17 kts 294°
2026-05-07 18:41 48.11253 16.57419 623 ft 18 kts 295°
2026-05-07 18:41 48.11310 16.57249 619 ft 20 kts 296°
2026-05-07 18:41 48.11371 16.57061 619 ft 20 kts 296°
2026-05-07 18:41 48.11434 16.56869 624 ft 21 kts 296°
2026-05-07 18:42 48.11498 16.56672 614 ft 21 kts 294°
2026-05-07 18:42 48.11566 16.56471 619 ft 22 kts 298°
2026-05-07 18:42 48.11632 16.56268 617 ft 22 kts 295°
2026-05-07 18:42 48.11699 16.56055 616 ft 22 kts 295°
2026-05-07 18:43 48.11766 16.55846 620 ft 23 kts 296°
2026-05-07 18:43 48.11837 16.55629 616 ft 22 kts 295°
2026-05-07 18:43 48.11895 16.55462 617 ft 15 kts 323°
2026-05-07 18:43 48.11979 16.55478 603 ft 9 kts 356°